Location: York
(31.8935°S, 116.7682°E)
Time: 23:43:34
(UTC+08:00)

Envisat - Visible Passes

Search period start: 15 May 2021 00:00
Search period end: 25 May 2021 00:00
Orbit: 764 x 766 km, 98.1° (Epoch: 14 May)

Date Brightness Start Highest point End Pass type
(mag) Time Alt. Az. Time Alt. Az. Time Alt. Az.
15 May 3.2 04:46:46 10° NNE 04:51:49 68° ESE 04:55:26 20° S visible
15 May 5.4 18:40:36 10° SSW 18:44:27 22° WSW 18:48:16 10° WNW visible
16 May 4.8 04:10:54 10° NE 04:15:12 28° ESE 04:17:56 18° SSE visible
16 May 3.9 05:49:51 10° NNW 05:54:05 26° W 05:58:07 11° SW visible
16 May 4.0 18:02:55 10° S 18:07:53 51° WSW 18:12:48 10° NNW visible
17 May 5.9 03:36:54 10° E 03:38:46 12° ESE 03:40:27 10° SE visible
17 May 2.9 05:12:06 10° N 05:17:09 65° W 05:20:38 21° SSW visible
17 May 5.9 19:07:41 10° SW 19:09:30 12° WSW 19:11:19 10° W visible
18 May 3.7 04:35:29 10° NNE 04:40:24 51° ESE 04:43:10 25° S visible
18 May 4.6 06:17:02 10° NW 06:19:39 14° W 06:22:16 10° WSW visible
18 May 5.0 18:28:47 10° SSW 18:33:05 28° WSW 18:37:22 10° NW visible
19 May 5.2 04:00:00 10° ENE 04:03:50 22° ESE 04:05:42 18° SE visible
19 May 3.6 05:37:58 10° NNW 05:42:34 34° W 05:45:53 17° SW visible
19 May 3.5 17:51:22 10° S 17:56:28 67° WSW 18:01:31 10° NNW visible
20 May 2.9 05:00:36 10° NNE 05:05:42 85° WNW 05:08:27 28° SSW visible
20 May 5.7 18:55:15 10° SSW 18:58:12 16° WSW 19:01:08 10° WNW visible
21 May 4.2 04:24:17 10° NE 04:29:00 39° ESE 04:31:01 28° SSE visible
21 May 4.4 06:04:36 10° NW 06:08:05 19° W 06:11:11 11° SW visible
21 May 4.6 18:17:03 10° S 18:21:43 36° WSW 18:26:20 10° NW visible
22 May 5.5 03:49:15 10° ENE 03:52:30 17° ESE 03:53:35 16° SE visible
22 May 3.3 05:26:14 10° N 05:31:04 45° W 05:33:46 24° SW visible
22 May 3.1 17:39:53 10° SSE 17:45:03 87° WSW 17:50:08 10° NNW visible
23 May 3.1 04:49:11 10° NNE 04:54:15 74° ESE 04:56:21 36° S visible
23 May 5.5 18:43:12 10° SSW 18:46:52 20° WSW 18:50:30 10° WNW visible
24 May 4.6 04:13:12 10° NE 04:17:37 31° ESE 04:18:56 27° SE visible
24 May 4.1 05:52:29 10° NNW 05:56:33 24° W 05:59:07 17° SW visible
24 May 4.1 18:05:25 10° S 18:10:19 46° WSW 18:15:10 10° NW visible
